Tracking 31027 objects as of 19-Jul-2025
HD Live streaming from Space Station
objects crossing your sky now

THOR ABLESTAR R/B

Track THOR ABLESTAR R/B now!
10-day predictions


NORAD ID: 447
Int'l Code: 1962-060B
Perigee: 1,070.3 km
Apogee: 1,168.8 km
Inclination: 50.1 °
Period: 107.5 minutes
Semi major axis: 7490 km
RCS: 3.8837 m2 (large)
Launch date: October 31, 1962
Source: United States (US)
Launch site: AIR FORCE EASTERN TEST RANGE (AFETR)

Note: This is a ROCKET BODY
Your satellite tracking list
COSMOS 1408 DEB
Track 1 satellite(s)




NASA's NSSDC Master Catalog

Two Line Element Set (TLE):
1 00447U 62060B   25199.62305030 -.00000098  00000-0  53821-4 0  9995
2 00447  50.1313 294.5277 0065777 260.9153 236.4729 13.39153241 67372
Source of the keplerian elements: AFSPC